Погода в Тамбове

Погода в Тамбове : погода сейчас, прогноз погоды и архив. Всё, что Вы хотите узнать о погоде в Тамбове!

Поиск расширенной информации на нашем сайте:

Другие новости

Новости СМИ2

Главная страница сайта

Новости сайта

03.07.2017

Напоминаем, что на нашем специализированном сайте Метеоцентр.Азия вы можете получить высокодетализированные автоматические прогнозы погоды по пунктам России, СНГ и мира в авиационном формате (включающие направление и скорость ветра, видимость, явления погоды, количество и форму облачности, нижнюю и верхнюю границу облачности).


Погода в Тамбове - сегодня

Время (UTC), дата Ветер
(°,м/с) 
Видим.   Явления Облачность Т
(°С)
Тd
(°С)
f(%) Тe
(°С)
Pmin
(гПа)
dP
(гПа)
Po
(мм)
O2
(г/м3)
Тmin Tmax R s Состояние
почвы
18 15.10.18 тихо ()   10 км    ясно 
+10.7 +8 83 +11  1026.9  0.5  758  293           
21 15.10.18 тихо ()   4500 м  местами туман поземный  ясно 
+5.8 +5.1 95 +6  1027.5  0.2  758  298           
00 16.10.18 тихо ()   2500 м  местами туман поземный  ясно 
+3.6 +3.1 97 +4  1028.2  0.6  759  301           
09 16.10.18 270 (З) 10 км    8/0 верхняя 
[Ci fib]
+17.4 +8 54 +18  1027.5  -0.4  759  286           
12 16.10.18 290 (З) 10 км    8/0 верхняя 
[Ci fib]
+19.6 +5.9 41 +21  1026.4  -1  758  284           
18 16.10.18 тихо ()   10 км    8/0 верхняя 
[Ci fib]
+9.3 +6.2 81 +9  1026.4  758  294           
21 16.10.18 тихо ()   10 км    8/0 верхняя 
[Ci fib]
+6.2 +4.8 91 +6  1025.9  -0.6  757  298           
00 17.10.18 тихо ()   10 км    8/0 верхняя 
[Ci fib]
+5 +3.6 91 +5  1025.6  -0.4  757  299           
06 17.10.18 250 (З) 10 км    ясно 
+9.6 +7.7 88 +11  1025.7  0.3  757  293  +2.3         
09 17.10.18 280 (З) 10 км    ясно 
+17 +6.4 50 +18  1025.1  757  286           
12 17.10.18 310 (СЗ) 10 км    ясно 
+19.3 +3 34 +20  1024.5  -0.6  757  284           
15 17.10.18 310 (СЗ) 10 км    ясно 
+11.8 +4 59 +13  1024.9  757  292    +19.6       
18 17.10.18 тихо ()   10 км    4/0 верхняя 
[Ci sp]
+8.2 +5.6 84 +8  1026  0.9  757  295           
21 17.10.18 тихо ()   5000 м  дымка  ясно 
+3.8 +2.6 92 +4  1026.9  0.6  758  301           
00 18.10.18 тихо ()   1800 м  местами туман поземный  ясно 
+2.1 +1.3 94 +2  1027  758  303           
09 18.10.18 нст () 10 км    3/0 верхняя 
[Ci sp]
+15.6 +6.7 55 +17  1025.8  -0.6  757  288           
12 18.10.18 230 (ЮЗ) 10 км    ясно 
+18.5 +4.8 40 +19  1024.1  -1.5  756  285           
18 18.10.18 150 (ЮВ) 10 км    5/0 верхняя 
[Ci sp]
+8.3 +5.1 80 +8  1023.1  -0.4  755  294           
21 18.10.18 140 (ЮВ) 10 км    3/0 верхняя 
[Ci fib]
+6.9 +4.9 87 +7  1023  -0.2  755  296           
00 19.10.18 160 (Ю) 10 км    ясно 
+5.9 +3.8 86 +6  1022.5  -0.6  755  297           
06 19.10.18 160 (Ю) 10 км    3/0 средняя 
[Ac trans]
+8.2 +5.6 84 +8  1021.4  -0.1  754  294           
09 19.10.18 190 (Ю) 10 км    3/0 средняя 
[Ac trans]
+17.9 +5.9 45 +18  1019.8  -1.1  753  284           
12 19.10.18 210 (ЮЗ) 10 км    ясно 
+19.8 +3.2 33 +20  1018.1  -1.6  752  282           
18 19.10.18 160 (Ю) 10 км    3/0 верхняя 
[Ci fib]
+8.9 +3.8 70 +9  1001  -0.6  739  287           
21 19.10.18 150 (ЮВ) н/о    н/о 
+7.9 +4.3 78 +9               
Время (UTC), дата Ветер
(°,м/с) 
Видим.   Явления Облачность Т
(°С)
Тd
(°С)
f(%) Тe
(°С)
Pmin
(гПа)
dP
(гПа)
Po
(мм)
O2
(г/м3)
Тmin Tmax R s Состояние
почвы

Для получения пояснительной информации подведите курсор к названию столбца.

ПОГОДА в Тамбове - архив

Всё, что Вы хотите узнать о погоде в Тамбове - удобно и подробно!

Выберите нужную дату (начиная с 1 января 2015* года) и нажмите кнопку "Найти".
Будут отображены архивные сводки погоды по пункту Тамбов, начиная с указанной даты.


Отображать данные в формате CSV (для использования в таблицах Excel)


Внимание! Наш архив погоды предназначен исключительно для личного некоммерческого использования в познавательных целях. Если Вам необходимы официальные справки о состоянии погоды (для производственных, юридических, коммерческих и т.п. целей), обращайтесь в органы Росгидромета.

*Примечание: данная дата относится к архиву по метеостанциям СССР (Россия, СНГ, Балтия).
Архив по метеостанциям Зарубежной Европы и Азии (кроме Китая) хранится 10 дней, по другим регионам земного шара (Китай, Африка, Америка, Австралия, Океания) - 1 день.

Тамбов - район местоположения метеостанции


Название, широта, долгота, высота метеостанции:
Тамбов 52.8°ш. 41.3°д. 128 м над ур. моря [Российская Федерация]

Дополнительная информация

В oтличие oт бoльшинства пoгoдных сайтoв мы публикуем пoдрoбную метеoинфoрмацию в детальнoм прoфессиoнальнoм фoрмате.

Характеристики температуры и влажнoсти вoздуха измеряются на высoте 2 м в тени вдали oт зданий и деревьев.
Скoрoсть ветра измеряется на высoте 10 м (на урoвне рoста челoвека скoрoсть ветра ниже в 1.5-2 раза). Если метеoстанция нахoдится в гoрoде или в лесу, тo скoрoсть ветра занижена на 2-4 м/с пo сравнению с oткрытым местoм. Скoрoсть ветра над акватoриями крупных рек и oзёр, а также на вершинах хoлмoв на 2-5 м/с выше, чем в oбычных услoвиях.
Атмoсфернoе давление в разных тoчках местнoсти мoжет значительнo oтличаться oт давления на метеoстанции, в зависимoсти oт услoвий рельефа (при пoдъёме на 10 м давление пoнижается примернo на 1 мм рт.ст.).